Regional Weather Roundup
Issued by NWS

Home | Current Version | Previous Version | Text Only | Print | Product List | Glossary Off
Versions: 1 2 3 4 5 6 7 8 9 10 11 12 13 14 15 16 17 18 19 20 21 22 23 24 25 26 27 28 29 30 31 32 33 34 35 36 37 38 39 40 41 42 43 44 45 46 47 48 49 50

000
ASUS43 KLMK 270510
RWRKY
KENTUCKY REGIONAL WEATHER ROUNDUP
NATIONAL WEATHER SERVICE LOUISVILLE KY
100 AM EDT FRI MAR 27 2015

NOTE "FAIR" INDICATES FEW OR NO CLOUDS BELOW 12,000 FEET
WITH NO SIGNIFICANT WEATHER AND/OR OBSTRUCTIONS TO VISIBILITY.

KYZ001>023-026-027-061>063-070>075-270600-
WESTERN AND SOUTH CENTRAL KENTUCKY

CITY           SKY/WX    TMP DP  RH WIND       PRES   REMARKS
PADUCAH        CLEAR     33  31  92 SW5       30.04S WCI  29
HENDERSON      CLEAR     34  28  80 CALM      30.02F
OWENSBORO      CLEAR     35  33  92 CALM      30.02F
HOPKINSVILLE   CLEAR     37  34  88 NW2       30.02S
BOWLING GREEN  CLEAR     39  35  86 CALM      30.02S
GLASGOW        PTCLDY    39  36  87 N3        30.00R
$$

KYZ024-025-028>034-038-045-046-053-270600-
NORTH CENTRAL KENTUCKY

CITY           SKY/WX    TMP DP  RH WIND       PRES   REMARKS
LOUISVILLE/SDF CLOUDY    41  36  82 W5        30.00F
LOUISVILLE/LOU CLOUDY    41  36  82 CALM      30.00F
FORT KNOX      CLOUDY    37  35  93 W2        29.98F
$$

KYZ035>037-039>044-047>052-055>060-089>105-270600-
NORTHEAST KENTUCKY

CITY           SKY/WX    TMP DP  RH WIND       PRES   REMARKS
LEXINGTON      MOCLDY    38  35  89 NW3       29.98F
COVINGTON      MOCLDY    36  31  82 CALM      29.98S
FRANKFORT      CLOUDY    39  35  86 NW3       29.97F
$$

KYZ054-064>069-076>088-106>120-270600-
SOUTHEAST KENTUCKY

CITY           SKY/WX    TMP DP  RH WIND       PRES   REMARKS
JACKSON        LGT RAIN  40  37  89 CALM      29.94R
LONDON         CLOUDY    42  36  79 N7        29.97R
SOMERSET       CLOUDY    39  37  93 CALM      29.99R
MIDDLESBORO    RAIN      42  39  89 N5        29.95R
MONTICELLO     CLOUDY    43  39  87 CALM      29.99F
$$



USA.gov is the U.S. government's official web portal to all federal, state and local government web resources and services.